THORAD AGENA D DEB, 42492

Orbit data source: Space-Track

THORAD AGENA D DEB, 42492 is space debris in SSO originally from a launch on Wed, 08 Apr 1970 UTC launched from the Air Force Western Test Range (AFWTR). Debris objects in space refer to the collection of defunct objects orbiting the Earth. Examples of debris include non-operational satellites, rocket bodies, and fragments generated from explosions, collisions, or faulty payload assembly.

Loading next visibility...
Identifier
42492, 1970-025QW
Orbit
SSO
Country
Flag of USUS
Related business
Manufacturer
Unknown
Mission
Spacecraft
Bus & Motor
Unknown
Mass
Unknown
Launch date (UTC)
1970-04-08 (56 years ago)
Launch vehicle
Unknown
Launch site
Air Force Western Test Range (AFWTR)
Object type
Payload
Rocket body
Debris
Shape & HBR
Unknown shape, 0.1 m
Radar Cross Section
Small (<0.1 m²)

Expand to show TLE details & history
Last TLE update: 4 days ago

TLE from 4 days ago
0 THORAD AGENA D DEB
1 42492U 70025QW  25292.87832405  .00000467  00000-0  65187-3 0  9999
2 42492  99.3093 147.1855 0006972   3.1326  13.7111 13.62802343579878
Epoch: 2025-10-19T21:04Z
TLE epoch observation values (Epoch: 2025-10-19T21:04:47.197Z)
Latitude
16.61956°
Longitude
159.61017°
Altitude
1,022.695 km
Speed
7.344 km/s
True Right ascension
09h 37m 34s
True Declination
16° 31' 44"
Sunlit
Object was in daylight at epoch
Visualization orbit readout
Latitude
Unknown
Longitude
Unknown
Altitude
Unknown
Speed
Unknown
Apparent Right ascension
Unknown
Apparent Declination
Unknown
Sunlit
N/A
Visualization observer readout
Local Sidereal Time
07:51:36
Azimuth
Unknown
Elevation
Unknown
Doppler factor
Unknown
Orbital elements
Apogee altitude
1,027.95 km
Perigee altitude
1,017.63 km
Semi-major axis
7,400.927 km
Eccentricity
0.0007
Inclination
99.3093°
RAAN
147.1855°
Arg. of periapsis
3.1326°
True anomaly
13.73005°
Mean anomaly
13.7111°
Eccentric anomaly
13.72057°
Mean motion
3.4089 °/min
Orbital period
105.61 mins
BSTAR
0.00065187
Loading maneuver chart data...
Computing Atmospheric mass density...

Documentation

Showing up to 5 results
|